Theta_e
314 315 315 315 321 318 318 320 327 326 324 320 320 321 321 320 319 314 322 324 319 318 313 315 320 322 313 314 313 310 315 315 315 314 316 311 314 311 312 315 318 321 325 327 334
314 314 316 314 315 320 319 319 325 325 324 322 322 321 323 314 314 317 318 322 321 316 314 313 314 312 312 313 312 313 313 315 313 313 314 311 312 310 316 320 324 330 328 330 335
314 314 316 314 315 321 318 318 323 325 322 323 323 322 320 314 310 311 317 324 324 319 313 312 312 312 312 314 313 312 314 313 313 311 312 312 312 311 314 318 317 325 328 331 332
314 313 314 314 314 316 318 319 322 325 323 322 323 319 314 312 329 310 314 319 321 314 316 313 312 312 312 315 313 313 313 313 311 310 311 311 309 311 313 314 312 320 328 332 332
313 314 313 314 312 315 319 319 321 325 323 323 323 320 315 311 311 311 310 316 325 322 317 312 311 312 313 312 312 313 313 311 310 310 311 309 311 311 312 310 315 327 328 331 333
312 312 313 314 313 313 320 318 320 325 323 322 321 317 310 312 310 311 310 318 322 318 317 314 312 315 318 317 316 309 311 310 309 310 310 312 311 311 311 314 326 329 328 327 331
311 312 313 315 313 315 318 318 319 324 323 321 318 312 309 313 310 311 311 317 312 314 308 314 313 316 319 323 322 316 310 310 310 310 311 309 313 312 310 315 326 328 327 327 327
311 313 314 314 314 315 317 318 319 323 322 320 318 312 311 311 309 312 313 313 311 310 311 311 312 311 316 313 312 311 310 311 311 309 310 311 313 312 308 316 323 326 325 327 326
309 311 313 315 314 315 319 318 319 322 321 318 313 310 311 308 311 313 312 311 310 309 309 310 309 308 307 309 309 308 311 310 311 309 310 311 314 309 306 312 315 323 324 325 326
308 308 311 317 315 314 318 317 319 321 319 314 312 311 309 310 311 312 311 310 308 307 307 307 304 305 302 305 311 309 309 308 311 310 309 310 310 308 306 306 310 312 319 321 323
307 307 309 315 315 315 318 318 322 320 313 311 311 308 307 310 311 310 309 308 306 306 307 306 307 307 306 305 307 307 308 309 308 308 310 308 308 307 306 304 304 304 306 311 316
308 307 310 316 316 315 318 318 320 315 316 307 308 308 307 310 310 309 309 307 307 307 305 306 307 306 305 305 306 307 308 307 308 309 309 308 308 307 305 305 304 304 302 303 306
307 307 309 317 317 314 317 316 315 314 314 310 308 309 308 308 309 309 307 306 307 306 306 307 308 305 306 305 306 305 305 306 308 308 307 307 307 306 306 304 304 303 303 303 304
305 307 308 317 316 317 317 315 314 314 316 311 310 310 309 308 310 308 308 307 306 307 306 307 306 306 306 306 305 307 304 305 307 307 308 305 308 304 303 304 304 305 303 305 304
305 306 307 317 317 317 316 313 312 309 323 311 309 308 308 309 309 309 307 306 306 306 306 307 306 306 307 306 305 307 304 305 306 305 305 305 304 304 302 304 303 304 305 306 305
304 306 308 315 317 316 312 310 310 313 317 311 310 311 309 308 309 307 308 305 304 306 305 306 305 306 307 304 305 302 304 303 302 302 305 304 304 304 302 305 304 304 302 301 301
303 306 308 317 317 316 308 309 313 315 309 310 310 310 309 309 309 310 309 307 308 307 306 307 307 306 305 305 304 304 304 306 307 306 307 303 303 306 305 302 302 304 302 302 299
303 304 309 316 316 313 308 314 318 312 312 307 309 310 309 309 309 310 309 309 306 304 305 307 308 306 305 305 305 304 305 307 308 307 306 304 305 305 303 303 301 300 300 301 301
303 306 310 317 314 310 312 318 315 312 308 308 310 310 310 309 309 309 310 309 308 303 307 305 306 305 305 305 306 305 305 304 304 292 305 303 302 302 303 302 301 301 301 302 302
301 312 316 314 310 310 313 317 307 309 308 309 310 309 310 310 309 310 310 308 308 304 305 306 308 307 307 305 306 304 304 307 305 306 307 304 304 304 305 304 303 302 302 302 303
302 318 316 310 310 311 314 312 306 306 308 308 307 309 308 310 308 310 310 307 307 304 304 304 307 309 307 307 305 305 305 305 305 306 307 305 303 299 303 304 303 302 302 301 302
307 314 312 310 313 310 314 306 307 307 307 307 307 306 308 309 309 309 308 307 305 304 306 306 307 308 308 306 305 306 306 306 309 306 303 305 306 301 300 301 300 301 301 302 301
298 301 310 311 312 310 311 307 307 308 308 308 307 307 307 309 310 308 307 306 306 305 307 307 307 308 309 308 306 306 305 305 303 304 306 306 306 301 302 303 304 303 301 301 301
297 306 308 310 309 311 310 306 307 308 307 307 307 307 308 309 308 309 308 307 306 307 309 309 308 308 310 309 307 308 306 304 306 308 306 306 306 306 305 305 304 305 301 300 301
296 303 305 309 310 311 308 306 308 308 307 307 307 308 308 309 309 309 309 307 306 310 308 308 309 307 304 306 307 307 307 306 307 308 308 309 304 303 302 303 303 302 303 302 301
299 303 304 306 309 310 309 308 308 308 308 308 307 308 308 308 308 308 308 307 307 307 306 304 303 305 302 305 306 306 307 307 307 308 308 308 305 303 301 300 303 302 302 302 301
295 300 307 309 309 309 309 307 307 308 308 306 307 306 307 307 306 306 307 307 307 308 308 306 301 301 299 305 306 306 307 307 307 307 308 308 307 301 301 300 300 300 300 301 301
Wind_Speed
27 29 28 36 33 39 38 36 32 28 27 31 25 23 18 14 13 10 9 8 12 11 10 4 2 1 2 3 4 3 4 2 5 6 4 4 5 1 2 6 1 4 5 2 25
30 28 27 28 26 40 39 36 36 35 30 29 26 20 22 13 7 10 14 12 17 11 14 6 2 4 2 1 3 3 3 7 4 3 5 6 5 8 4 4 3 2 3 14 25
35 28 28 27 28 36 41 38 38 36 38 31 29 23 17 16 2 9 22 15 21 15 11 10 9 3 1 2 2 3 4 1 2 4 2 5 3 4 7 3 7 9 7 17 21
28 33 33 31 27 28 44 41 39 38 38 37 29 27 19 16 8 2 15 27 25 17 18 11 6 3 3 4 3 3 4 3 2 4 2 6 7 5 6 6 3 9 17 19 20
28 31 31 37 33 26 44 43 41 40 38 36 34 27 20 2 7 2 9 29 27 24 13 7 6 6 6 0 2 3 3 1 2 4 3 6 4 4 7 2 2 11 16 14 17
24 29 30 39 36 31 42 43 42 41 40 37 35 29 9 8 4 3 14 25 29 25 20 11 8 3 6 4 2 4 5 1 1 2 1 2 2 3 5 5 6 10 12 11 16
20 24 31 41 35 34 33 45 43 41 41 38 35 30 5 13 4 7 21 26 25 22 9 14 12 6 7 2 1 4 4 3 2 1 1 2 0 8 2 3 8 8 7 7 10
18 20 33 36 37 36 33 45 43 40 40 39 36 18 5 14 2 10 19 24 21 19 21 17 9 6 5 4 5 3 2 1 2 4 1 3 8 4 5 8 9 9 7 7 8
17 20 23 38 38 34 34 44 42 40 38 35 25 5 4 10 8 10 16 21 20 12 7 15 7 3 5 5 3 2 3 3 5 2 2 3 7 3 2 6 8 8 7 7 6
23 19 20 41 40 37 37 44 41 38 40 26 12 5 5 7 12 14 12 26 7 8 5 5 4 4 3 4 7 5 5 3 5 3 2 3 9 5 3 6 9 8 8 8 8
21 20 24 37 44 39 37 42 13 9 21 9 15 2 10 13 22 9 18 12 6 6 5 2 5 6 8 7 5 5 6 6 1 3 2 6 8 9 5 4 8 9 8 9 13
21 22 28 37 44 39 41 19 19 14 18 5 11 1 6 20 6 7 23 7 6 6 6 4 7 8 8 5 5 3 4 4 2 1 4 1 10 10 5 6 8 10 9 12 7
21 26 24 36 43 35 45 35 27 38 9 2 7 3 5 5 7 14 13 5 10 9 6 8 7 9 7 5 6 3 6 5 4 1 0 3 7 6 6 5 6 7 10 8 15
22 26 27 44 33 38 33 38 38 30 6 9 8 6 5 8 4 5 14 8 4 9 8 5 4 11 7 5 5 5 5 4 5 4 4 2 5 6 6 9 6 12 11 16 15
21 24 28 49 21 24 42 47 41 6 11 16 10 4 6 8 15 6 4 6 10 8 7 8 9 8 6 8 8 7 5 6 3 3 1 1 2 7 1 6 10 15 17 17 12
25 28 26 44 32 51 41 45 23 3 6 5 9 9 13 5 2 6 5 6 5 5 4 6 2 7 10 3 9 10 7 6 4 3 3 6 5 5 5 8 8 5 8 9 9
26 28 29 43 25 46 43 22 8 5 11 8 15 18 18 6 6 21 17 11 9 8 6 3 2 1 5 7 4 4 8 1 1 1 5 2 2 9 9 10 6 5 7 5 6
25 25 37 44 42 52 32 17 13 9 9 6 13 21 10 13 1 20 18 13 6 6 5 10 6 9 4 7 9 7 9 5 6 3 3 3 7 6 9 7 8 8 7 6 5
26 26 38 41 60 52 16 21 12 17 11 18 22 24 5 10 8 16 21 24 15 8 8 7 4 2 3 4 12 6 4 6 7 2 3 4 7 9 11 11 9 9 7 8 7
17 20 31 51 60 36 16 22 7 14 14 22 14 18 23 24 8 17 21 19 16 8 2 6 5 1 1 3 2 8 11 4 1 4 4 4 4 6 6 9 7 7 9 7 4
12 12 28 64 56 19 19 12 7 14 19 16 9 11 15 21 8 15 16 2 11 7 3 6 5 2 2 6 8 4 5 3 6 5 5 1 5 7 9 4 6 7 6 8 8
4 12 47 60 15 14 21 8 8 21 13 4 6 5 18 21 6 15 10 4 12 9 8 3 6 4 5 2 3 2 8 7 7 5 2 3 7 2 5 4 6 7 5 5 7
2 2 41 53 14 16 14 5 7 23 21 8 6 5 18 17 6 5 7 6 12 12 11 7 0 4 3 3 2 4 3 7 6 3 7 5 5 4 5 3 5 5 4 5 6
3 5 7 10 14 34 26 7 10 18 4 5 8 14 17 14 3 9 6 6 13 8 6 8 3 7 11 6 8 6 6 6 6 3 4 14 3 2 4 5 5 4 4 5 7
1 2 1 8 16 25 18 6 22 14 5 9 5 21 20 8 5 8 6 5 5 10 7 5 7 4 2 3 7 7 11 12 12 24 10 26 12 9 7 6 6 4 3 4 7
3 6 0 7 29 30 17 9 28 6 9 11 17 27 23 15 15 11 9 5 8 2 9 3 2 3 3 3 1 2 9 18 23 19 22 17 15 4 10 4 4 7 7 8 9
3 4 7 18 22 20 20 16 24 13 7 6 20 10 6 9 8 10 6 8 11 13 10 8 6 4 5 2 4 5 16 14 12 14 17 18 12 7 8 9 10 11 9 11 11
Wind_Direction
241 244 243 253 233 228 225 225 213 201 195 195 200 201 186 188 190 188 221 216 200 189 173 153 120 75 38 98 95 124 75 200 219 159 231 150 162 96 97 118 206 166 155 242 163
239 237 237 254 265 222 222 222 216 203 194 194 198 203 191 165 175 221 214 212 190 181 187 175 75 45 52 98 78 99 131 215 215 232 201 190 172 160 145 126 218 165 28 141 152
235 231 237 240 242 220 219 219 211 204 200 194 188 194 179 149 249 239 224 204 194 198 160 146 132 89 107 55 142 141 193 174 289 264 219 181 191 172 124 233 217 189 161 155 161
239 234 234 239 254 253 217 215 211 203 202 197 189 185 162 148 191 195 210 199 177 156 162 129 82 78 169 176 182 188 229 198 291 331 193 190 132 183 187 216 265 188 163 159 172
240 237 232 237 245 259 213 212 206 201 199 192 190 177 149 197 253 261 190 183 179 193 161 132 134 161 150 18 20 221 225 126 327 346 251 145 184 191 218 354 67 132 156 172 178
246 240 235 236 239 245 212 209 204 198 195 187 182 164 154 179 218 217 166 173 182 176 168 163 161 129 110 125 160 317 269 191 3 347 37 201 130 170 219 123 119 152 172 176 183
255 241 232 228 229 236 226 206 201 196 193 186 174 165 170 201 171 192 173 170 178 175 149 183 149 136 139 32 148 295 315 347 191 63 298 292 188 223 98 128 162 180 181 187 197
258 247 231 229 224 238 233 202 194 191 188 186 177 170 200 218 187 173 174 174 179 179 183 180 172 100 143 159 55 329 53 290 295 132 348 102 260 326 157 152 195 197 198 201 212
261 254 242 225 221 229 215 196 191 188 176 169 164 156 220 178 193 174 178 159 161 135 114 165 123 135 60 135 97 81 158 190 300 147 138 127 259 258 149 180 211 212 212 214 228
257 263 250 225 218 226 207 190 184 167 145 143 161 95 205 203 163 162 161 159 134 125 75 79 65 104 55 115 192 164 153 218 215 195 82 157 252 236 313 203 224 224 227 225 226
275 272 258 227 216 222 194 166 172 152 150 165 185 192 129 135 141 152 155 119 91 85 147 151 125 179 184 180 171 159 164 196 284 13 144 217 257 263 230 250 250 240 225 233 231
264 274 260 221 214 213 183 177 181 139 160 124 169 308 159 143 119 161 158 126 124 144 124 80 191 200 180 168 144 141 150 193 277 175 161 261 260 255 196 234 212 228 228 233 242
272 262 271 211 207 213 174 175 160 135 158 182 175 190 172 130 133 172 154 120 148 146 176 168 202 145 142 150 140 135 163 184 203 84 159 333 276 259 238 229 234 227 231 228 227
274 257 266 199 198 190 175 160 160 155 154 153 162 234 167 140 113 153 164 129 160 163 129 178 146 152 140 165 129 165 204 148 153 120 234 130 278 258 242 243 217 236 229 233 228
286 268 268 187 187 165 170 157 157 110 194 138 153 170 148 160 133 223 151 63 157 157 141 199 157 146 157 177 157 213 141 141 123 126 26 257 268 265 180 256 249 236 231 235 230
284 270 250 188 173 170 166 150 132 144 162 157 148 157 157 161 150 122 135 69 140 108 66 167 171 157 178 114 151 149 86 54 60 102 270 215 191 252 185 206 249 234 229 235 228
282 268 231 186 170 165 162 148 142 192 151 156 165 158 166 150 123 164 176 165 158 134 165 112 170 194 129 89 54 105 108 358 289 269 221 10 241 251 265 242 226 252 270 285 254
284 268 226 186 161 164 169 149 199 131 171 160 144 148 167 136 214 180 162 184 236 115 132 167 210 168 181 167 157 177 156 152 198 206 249 61 240 249 249 289 255 244 247 269 259
307 268 210 176 162 160 166 177 179 171 160 147 139 156 142 172 131 178 186 192 188 189 157 146 225 60 149 151 149 199 182 146 105 16 44 236 297 293 275 255 248 251 241 243 238
310 198 195 163 155 153 177 182 163 154 124 136 149 177 177 174 152 182 186 201 185 173 182 186 121 2 192 94 18 185 151 148 33 154 254 267 273 238 281 263 236 240 238 237 218
283 192 182 156 155 160 179 183 130 161 139 146 163 160 176 175 163 184 187 309 170 152 114 133 100 189 127 213 167 144 169 101 128 170 178 296 264 221 252 318 267 249 217 212 203
272 181 158 152 157 173 180 139 115 157 138 129 109 80 163 168 154 180 186 188 156 139 155 171 111 141 202 246 277 182 169 161 187 205 266 133 258 202 240 239 293 287 243 208 202
264 85 166 158 167 171 163 113 125 162 170 157 131 157 155 164 148 142 156 198 164 156 162 179 127 91 28 319 286 211 177 174 99 93 196 151 258 355 267 313 300 265 261 219 206
237 143 174 178 172 162 164 144 132 170 107 119 114 115 135 168 79 171 136 171 190 179 153 111 133 161 192 212 139 161 164 145 131 190 183 242 162 345 302 275 291 277 237 223 219
229 187 274 161 165 161 163 97 146 169 164 128 131 160 162 147 130 154 137 113 152 160 156 150 183 157 58 185 159 173 174 168 181 222 190 252 214 219 217 220 246 237 203 220 229
264 163 58 127 161 159 159 164 162 155 154 176 170 167 164 156 186 158 125 135 171 132 153 17 132 124 7 23 16 174 186 197 210 217 236 247 255 213 232 243 277 255 226 236 237
260 276 151 144 163 153 177 162 174 155 10 123 143 134 132 159 93 136 154 124 144 167 166 138 126 99 250 307 88 310 218 204 219 218 226 236 228 174 215 220 229 234 233 239 242